Location: Pella
(41.4080°N, 92.9160°W)
Time: 20:10:40
(UTC-05:00)

ATLAS 5 CENTAUR R/B - Visible Passes

Search period start: 28 August 2014 00:00
Search period end: 07 September 2014 00:00
Orbit: 386 x 399 km, 35.7° (Epoch: 28 August)

Date Brightness Start Highest point End Pass type
(mag) Time Alt. Az. Time Alt. Az. Time Alt. Az.
01 Sep 3.4 05:50:39 10° SSW 05:52:36 15° SSE 05:54:33 10° ESE visible
02 Sep 3.8 04:53:37 11° SSE 04:53:37 11° SSE 04:54:15 10° SE visible
03 Sep 2.9 05:29:03 17° SSW 05:30:17 21° SSE 05:32:44 10° ESE visible
04 Sep 4.0 04:31:50 11° SE 04:31:50 11° SE 04:32:09 10° ESE visible
04 Sep 2.4 06:04:06 10° WSW 06:06:51 28° S 06:09:37 10° ESE visible
05 Sep 2.5 05:06:21 25° SSE 05:06:21 25° SSE 05:08:50 10° ESE visible
06 Sep 2.3 05:40:26 20° SW 05:41:50 28° S 05:44:34 10° ESE visible
